TimeCDT,TemperatureF,Dew PointF,Humidity,Sea Level PressureIn,VisibilityMPH,Wind Direction,Wind SpeedMPH,Gust SpeedMPH,PrecipitationIn,Events,Conditions,WindDirDegrees,DateUTC
12:52 AM,50.0,36.0,59,29.97,10.0,South,11.5,-,N/A,,Clear,170,2014-03-31 05:52:00
1:52 AM,50.0,35.1,57,29.96,10.0,South,18.4,24.2,N/A,,Clear,170,2014-03-31 06:52:00
2:52 AM,48.9,35.1,59,29.94,10.0,SSE,11.5,-,N/A,,Clear,160,2014-03-31 07:52:00
3:52 AM,46.9,35.1,63,29.92,10.0,SSE,11.5,-,N/A,,Clear,160,2014-03-31 08:52:00
4:52 AM,46.0,35.1,66,29.91,10.0,SSE,10.4,-,N/A,,Clear,160,2014-03-31 09:52:00
5:52 AM,45.0,36.0,71,29.90,9.0,SSE,10.4,-,N/A,,Clear,160,2014-03-31 10:52:00
6:52 AM,44.1,37.0,76,29.88,8.0,SSE,15.0,-,N/A,,Clear,160,2014-03-31 11:52:00
7:52 AM,46.0,37.9,73,29.87,7.0,SSE,18.4,23.0,N/A,,Clear,160,2014-03-31 12:52:00
8:52 AM,50.0,39.0,66,29.88,8.0,South,13.8,24.2,N/A,,Clear,170,2014-03-31 13:52:00
9:52 AM,55.9,39.9,55,29.86,10.0,SSE,16.1,28.8,N/A,,Clear,150,2014-03-31 14:52:00
10:52 AM,60.1,39.0,46,29.82,10.0,SSE,21.9,32.2,N/A,,Clear,160,2014-03-31 15:52:00
11:52 AM,59.0,39.0,48,29.79,10.0,SSE,21.9,29.9,N/A,,Clear,160,2014-03-31 16:52:00
12:52 PM,62.1,39.0,43,29.75,10.0,South,21.9,32.2,N/A,,Partly Cloudy,170,2014-03-31 17:52:00
1:52 PM,64.0,37.9,38,29.71,10.0,South,21.9,31.1,N/A,,Scattered Clouds,170,2014-03-31 18:52:00
2:52 PM,66.0,37.9,36,29.69,10.0,South,24.2,34.5,N/A,,Clear,170,2014-03-31 19:52:00
3:52 PM,69.1,37.9,32,29.64,10.0,South,25.3,35.7,N/A,,Clear,170,2014-03-31 20:52:00
4:52 PM,68.0,39.0,35,29.58,10.0,SSE,24.2,40.3,N/A,,Clear,160,2014-03-31 21:52:00
5:52 PM,66.9,39.9,37,29.62,10.0,South,20.7,29.9,N/A,,Clear,180,2014-03-31 22:52:00
6:52 PM,64.9,39.0,39,29.62,10.0,South,20.7,31.1,N/A,,Clear,170,2014-03-31 23:52:00
7:52 PM,62.1,39.9,44,29.59,10.0,South,16.1,28.8,N/A,,Clear,170,2014-04-01 00:52:00
8:52 PM,60.1,39.9,47,29.61,10.0,South,15.0,25.3,N/A,,Clear,180,2014-04-01 01:52:00
9:31 PM,59.0,39.2,48,29.68,10.0,WSW,8.1,-,N/A,,Mostly Cloudy,250,2014-04-01 02:31:00
9:52 PM,55.9,43.0,62,29.68,7.0,SW,15.0,21.9,0.00,Rain,Rain,220,2014-04-01 02:52:00
10:52 PM,52.0,44.1,74,29.72,10.0,West,10.4,-,0.01,,Partly Cloudy,270,2014-04-01 03:52:00
11:52 PM,46.0,32.0,58,29.75,10.0,West,15.0,-,N/A,,Scattered Clouds,270,2014-04-01 04:52:00